Regional Weather Roundup
Issued by NWS

Home | Current Version | Previous Version | Text Only | Print | Product List | Glossary Off
Versions: 1 2 3 4 5 6 7 8 9 10 11 12 13 14 15 16 17 18 19 20 21 22 23 24 25 26 27 28 29 30 31 32 33 34 35 36 37 38 39 40 41 42 43 44 45 46 47 48 49 50

214
ASUS44 KJAN 180703
RWRMS

MISSISSIPPI HOURLY WEATHER ROUNDUP
NATIONAL WEATHER SERVICE JACKSON MS
200 AM CDT FRI APR 18 2014

NOTE: "FAIR: INDICATES FEW OR NO CLOUDS BELOW 12,000 FEET WITH NO
SIGNIFICANT WEATHER AND/OR OBSTRUCTIONS TO VISIBILITY.

MSZ001>002-007>008-010>013-018>021-025>028-034>036-180800-
NORTHWEST MISSISSIPPI

CITY           SKY/WX    TMP DP  RH WIND       PRES   REMARKS
CLARKSDALE       N/A     57  52  82 E5        30.23S
CLEVELAND      PTSUNNY   57  54  89 E6        30.21F
GREENWOOD      CLOUDY    58  51  78 E3        30.20F
GREENVILLE     CLOUDY    59  53  80 E5        30.19F
GRENADA        PTSUNNY   54  52  94 CALM      30.22F
OLIVE BRANCH   CLOUDY    55  45  67 CALM      30.23S
OXFORD         MOCLDY    54  48  82 CALM      30.25R
TUNICA         RAIN      55  50  82 E3        30.23S
$$

MSZ003>006-009-014>017-022>024-029>033-037>039-180800-
NORTHEAST MISSISSIPPI

CITY           SKY/WX    TMP DP  RH WIND       PRES   REMARKS
BELMONT        CLOUDY    60  48  66 SE6       30.24S
COLUMBUS AFB   CLOUDY    59  51  75 N2        30.22F
CORINTH        CLOUDY    57  46  67 SE5       30.23F
GOLDN TRIANGLE CLOUDY    59  48  67 E3        30.24F
STARKVILLE     PTSUNNY   59  52  77 CALM      30.22S
TUPELO         CLOUDY    59  50  72 SE5       30.23S
$$

MSZ040-058-180800-
CENTRAL MISSISSIPPI

CITY           SKY/WX    TMP DP  RH WIND       PRES   REMARKS
JACKSON INTL   CLOUDY    59  52  77 NE3       30.16F
JACKSON HAWKNS CLOUDY    61  51  70 E5        30.16F
MERIDIAN KEY   CLOUDY    60  53  77 SE8       30.17F
MERIDIAN NAS   CLOUDY    58  52  80 NE3       30.19F
RAYMOND        FAIR      59  54  82 CALM      30.16F
VICKSBURG      CLOUDY    60  54  80 N5        30.17F
$$

MSZ059>079-180800-
SOUTH MISSISSIPPI

CITY           SKY/WX    TMP DP  RH WIND       PRES   REMARKS
BROOKHAVEN     FAIR      57  55  94 CALM      30.17S
COLUMBIA       CLOUDY    59  55  88 MISG      30.12F
HATTIESBURG    LGT RAIN  60  58  92 E8        30.15F
MCCOMB         CLOUDY    59  53  80 N5        30.14S
NATCHEZ        MOCLDY    57  52  82 E5        30.15F
PINE BELT      CLOUDY    59  54  82 E6        30.15F
$$

MSZ080>082-180800-
COASTAL MISSISSIPPI

CITY           SKY/WX    TMP DP  RH WIND       PRES   REMARKS
BILOXI         LGT RAIN  61  61 100 E10       30.10F
PASCAGOULA     LGT RAIN  61  59  93 N6        30.12F
GULFPORT       CLOUDY    63  59  87 NE8       30.09F
$$



USA.gov is the U.S. government's official web portal to all federal, state and local government web resources and services.